Location: Mercogliano
(40.9167°N, 14.7333°E)
Time: 13:44:44
(UTC+00:00)

Cosmos 1634 Rocket - Pass Details

Date: 18 September 2020
Orbit: 961 x 991 km, 82.9° (Epoch: 28 October)

Event Time Altitude Azimuth Distance (km) Brightness Sun altitude
Exits shadow 19:34:23 76° 94° (E) 992 3.8 -27.9°
Drops below altitude 10° 19:40:34 10° 10° (N) 2,710 6.5 -28.9°
Sets 19:43:05 0° 10° (N) 3,664 7.3 -29.3°
